Terminal Aerodrome Forecast
Issued by NWS Dodge City, KS

Home | Current Version | Previous Version | Text Only | Print | Product List | Glossary On
Versions: 1 2 3 4 5 6 7 8 9 10 11 12 13 14 15 16 17 18 19 20 21 22 23 24 25 26 27 28 29 30 31 32 33 34 35 36 37 38 39 40 41 42 43 44 45 46 47 48 49 50
292
FTUS43 KDDC 242320
TAFDDC
TAF
KDDC 242320Z 2500/2524 16012G22KT P6SM FEW040 SCT080
     FM250200 14011KT P6SM VCTS SCT040CB
      TEMPO 2503/2507 VRB30G50KT 4SM +TSRA OVC025CB
     FM251000 09009KT P6SM BKN012
     FM251300 14009KT P6SM BKN008
     FM251700 15010KT P6SM SCT026=

USA.gov is the U.S. government's official web portal to all federal, state and local government web resources and services.